Theta_e
327 327 328 328 328 327 327 328 329 330 330 331 341 343 346 349 353 354 356 356 356 357 357 356 356 356 357 356 355 353 357 358 356 358 360 358 360 359 360 362 364 364 363 362
327 327 327 327 327 327 328 328 328 328 329 330 332 340 344 350 352 354 353 353 354 353 354 356 355 357 356 353 348 349 352 354 353 355 356 353 351 349 348 348 346 350 358 361
328 328 328 329 328 327 326 327 328 328 329 330 330 337 343 349 351 351 350 350 350 351 350 352 351 348 347 345 343 338 339 337 337 336 346 345 351 344 341 346 345 345 344 346
329 330 332 330 330 329 327 327 327 328 329 334 333 337 342 347 350 350 349 348 348 347 348 348 349 348 346 347 340 344 346 347 345 347 344 351 349 347 349 352 346 343 351 359
332 331 331 330 331 330 328 328 327 329 330 330 332 336 342 346 349 349 348 348 347 346 347 346 345 345 345 344 345 337 338 342 344 347 349 349 348 349 347 347 349 353 355 355
329 331 333 331 330 329 329 330 328 327 330 333 335 339 339 346 347 347 347 346 345 344 344 343 343 343 341 341 341 342 342 341 342 344 346 347 350 349 349 351 353 350 355 355
329 329 330 330 329 328 332 331 328 327 330 334 341 338 343 347 346 345 345 343 342 342 341 340 338 335 334 334 333 334 330 330 336 340 343 345 345 348 351 351 353 354 354 353
330 330 330 328 328 331 334 334 332 333 332 335 339 344 346 347 346 345 345 343 341 339 338 336 334 334 332 325 319 317 317 324 332 331 334 338 341 343 346 353 355 355 353 351
332 328 329 328 328 335 334 334 335 335 335 336 338 344 344 347 345 344 343 340 338 337 335 335 334 332 327 316 313 312 312 313 314 320 336 339 337 339 343 349 352 354 354 354
330 329 328 328 332 334 334 332 333 333 334 336 337 340 342 344 342 338 336 336 335 334 334 332 331 328 320 317 318 320 317 317 316 318 329 337 333 338 340 342 344 347 351 352
330 329 327 326 326 327 330 332 332 332 335 336 338 340 342 339 337 335 335 335 334 334 332 331 329 327 327 327 330 331 330 330 330 329 333 333 333 333 335 338 343 345 345 346
329 326 327 327 326 325 328 332 332 338 341 340 340 338 335 335 335 334 333 333 332 333 331 328 327 326 327 328 329 330 328 327 327 328 329 331 332 333 334 334 338 342 345 345
325 325 325 326 327 329 329 332 336 340 341 338 335 335 334 331 332 330 331 331 330 330 328 327 326 325 325 325 326 328 328 327 326 326 327 329 330 331 330 331 335 338 342 343
321 323 324 325 326 330 330 331 336 337 338 334 333 331 326 329 326 329 329 330 329 328 327 327 326 325 323 323 323 325 325 324 324 323 324 326 327 328 328 330 332 335 338 341
321 323 323 323 325 326 328 334 334 335 333 332 329 326 325 323 324 322 328 328 328 327 327 326 325 323 319 321 319 322 322 322 322 322 323 324 325 326 327 327 329 331 334 337
323 323 323 323 325 328 329 330 331 331 333 332 330 329 325 322 322 322 324 326 327 326 327 326 323 322 320 318 317 321 321 320 320 321 321 323 323 324 324 323 326 329 331 334
322 322 322 324 325 329 328 328 327 326 326 326 326 326 325 326 326 326 326 325 327 326 325 324 323 319 320 318 316 319 319 319 319 320 320 320 321 320 319 322 323 325 327 330
321 322 323 325 327 327 324 322 321 322 321 323 324 324 325 326 325 325 325 325 325 324 324 322 321 320 319 313 313 317 317 317 318 318 317 317 315 315 317 319 320 322 324 327
322 322 324 323 325 324 322 322 323 322 323 323 323 324 325 325 325 324 324 324 324 323 322 320 316 318 317 310 313 315 315 315 315 315 313 312 312 313 314 315 317 319 320 323
323 321 322 323 324 323 324 323 323 323 323 323 324 324 324 325 324 323 323 323 322 322 321 318 318 316 315 312 312 313 313 313 312 311 309 310 311 312 313 314 315 316 319 321
323 324 324 326 325 324 322 322 321 321 321 322 323 323 324 325 323 323 322 321 320 318 318 316 316 314 312 313 313 312 311 310 309 309 308 307 309 310 310 311 313 313 314 317
322 321 323 324 322 320 320 320 321 321 321 322 322 321 322 323 322 322 321 320 318 315 316 316 314 311 311 313 313 312 311 309 307 306 305 305 306 306 306 307 308 309 309 311
318 317 319 321 320 319 320 320 321 321 322 322 321 321 321 321 322 321 320 319 317 315 317 315 313 309 311 313 313 311 310 309 307 305 304 304 303 304 305 304 305 305 306 308
323 323 322 321 322 322 322 322 322 322 322 322 321 321 321 322 321 320 318 316 315 313 314 314 312 309 311 313 313 312 310 308 307 306 304 303 303 302 302 302 302 303 304 305
322 323 322 322 322 322 323 321 320 320 320 320 320 320 321 320 319 317 316 315 313 311 312 312 310 309 310 312 312 312 310 307 307 306 305 303 301 301 301 301 302 302 302 303
321 320 321 321 320 320 320 320 320 320 319 320 321 321 321 320 318 317 315 314 312 312 314 312 311 309 312 312 312 311 311 309 307 306 305 304 301 300 300 300 301 301 301 300
316 318 319 318 319 318 318 319 319 319 319 320 320 320 320 318 317 316 314 313 313 313 313 313 312 311 312 312 312 311 311 311 309 308 306 305 304 301 302 301 301 301 300 300
Wind_Speed
20 20 17 11 16 21 21 18 19 15 16 14 16 12 13 14 13 11 12 11 10 9 11 9 9 10 12 15 11 11 12 7 9 10 10 12 13 13 9 12 13 16 17 21
23 23 20 22 20 16 17 20 19 18 19 15 8 12 13 13 16 15 12 11 12 13 12 12 11 11 11 9 9 10 12 9 2 3 2 6 9 10 9 11 14 18 18 21
22 21 22 25 21 20 19 19 16 17 12 13 9 8 14 14 17 18 16 14 13 13 11 11 11 12 10 9 5 3 7 21 22 26 26 23 19 23 23 23 23 23 25 21
16 19 29 19 21 20 22 21 17 14 9 3 4 10 14 16 19 18 16 15 15 12 10 10 9 9 8 6 6 5 4 7 13 11 15 15 18 16 17 17 21 23 19 21
16 18 21 20 18 22 18 20 20 17 14 10 10 9 12 16 18 17 15 14 13 14 13 14 10 6 6 6 3 2 3 6 9 6 8 10 11 13 13 17 20 16 18 22
18 24 28 20 19 13 12 18 15 16 13 12 14 11 10 19 18 14 15 15 17 15 13 12 10 10 9 7 4 2 2 1 2 6 7 8 10 12 12 15 19 17 16 18
20 21 21 16 15 19 22 12 21 25 15 18 14 7 9 23 21 20 17 17 19 16 14 13 12 12 11 10 7 5 4 6 6 5 6 7 11 15 15 15 14 12 18 14
18 22 24 26 7 13 3 8 2 11 17 18 19 9 18 20 21 23 24 22 19 16 15 12 11 9 9 8 6 5 5 5 6 8 8 9 9 11 13 11 9 10 12 9
18 9 17 9 8 11 10 4 8 9 10 16 17 18 20 25 23 25 24 22 18 16 14 11 9 7 6 5 4 3 3 5 7 8 9 12 12 11 10 11 9 7 12 13
9 20 18 14 3 5 7 5 5 8 14 14 16 19 20 27 26 23 23 21 18 14 10 8 7 6 6 7 7 7 7 7 4 5 10 12 13 10 11 11 10 11 7 2
4 24 26 31 22 11 5 6 5 6 8 11 14 18 25 27 21 22 18 16 15 13 9 8 7 6 5 6 6 6 7 8 9 8 7 12 14 15 13 13 13 13 10 10
2 6 6 36 30 26 15 11 8 10 13 11 21 26 27 28 20 21 15 12 13 12 8 7 6 5 6 7 7 9 8 7 8 9 10 10 13 12 15 16 15 14 13 11
4 20 13 25 29 19 19 12 11 15 20 29 31 25 26 26 21 20 13 13 12 12 10 8 7 5 6 7 8 7 7 7 8 10 10 12 12 14 16 15 16 15 14 12
10 21 21 11 20 12 17 15 16 17 24 28 39 37 21 18 16 11 12 11 12 13 8 5 5 4 5 6 6 7 8 10 8 9 10 11 13 14 15 15 17 14 16 15
18 29 22 21 19 15 6 14 13 22 27 27 26 30 25 26 22 14 12 10 6 6 7 5 3 3 4 4 6 7 6 6 9 10 11 13 12 14 16 17 16 17 15 14
18 19 17 21 18 20 18 16 21 20 23 23 22 22 23 25 23 16 12 13 14 12 9 7 4 3 4 5 6 6 8 13 15 12 13 13 14 13 16 18 17 17 16 14
14 16 18 25 20 26 28 22 18 20 21 21 21 21 22 21 22 21 19 17 14 12 10 8 4 4 4 6 7 6 8 10 14 14 14 15 16 14 16 18 19 19 17 16
15 15 19 17 15 27 30 24 22 21 19 19 21 21 22 22 21 20 18 16 14 13 10 8 6 4 4 8 9 8 9 11 12 14 16 16 21 19 17 18 19 18 19 18
8 10 18 13 17 24 28 21 19 21 22 22 20 21 21 20 20 21 17 16 15 13 10 5 7 6 5 10 10 8 10 11 12 12 14 18 17 17 18 19 19 19 19 19
8 7 17 20 18 21 25 20 20 20 19 19 19 20 19 19 20 20 17 13 10 14 10 8 7 7 6 12 14 11 13 14 14 14 17 18 17 18 18 19 20 19 18 18
8 8 9 18 25 30 22 18 18 19 19 18 18 17 17 16 17 17 16 11 9 11 9 11 7 4 6 8 10 12 15 16 18 19 18 18 16 15 15 16 17 17 17 17
14 17 4 9 13 19 19 18 17 17 16 15 15 15 15 15 17 14 10 11 10 10 9 7 5 6 5 11 9 12 14 14 18 17 16 16 16 14 12 13 14 14 14 13
26 18 13 12 15 20 17 15 14 13 13 12 13 14 14 14 15 16 13 10 10 13 9 11 5 1 6 8 6 8 11 14 16 22 18 16 15 15 13 13 11 11 10 9
13 16 16 16 16 17 15 12 10 10 11 12 12 13 13 13 13 10 12 15 12 12 5 11 3 1 3 2 2 4 8 12 14 16 20 19 17 13 14 13 12 10 8 5
14 15 15 14 14 11 9 10 10 10 11 12 13 14 14 15 14 14 11 10 11 11 7 8 7 4 4 3 3 0 4 7 11 14 18 19 17 13 11 10 11 9 7 4
9 9 10 8 9 10 7 7 8 11 13 14 13 13 15 16 15 14 13 9 9 9 10 6 7 5 5 5 3 2 0 3 4 10 17 27 27 16 12 11 10 9 6 7
7 9 8 9 9 8 9 9 10 10 7 12 14 15 16 15 15 14 13 11 9 9 8 8 6 6 6 6 4 4 3 3 3 4 9 17 22 24 16 11 12 10 7 10
Wind_Direction
253 267 274 261 219 215 237 241 251 252 244 247 195 190 166 158 159 158 148 145 141 131 139 147 151 142 141 133 149 171 158 174 233 231 233 240 234 234 253 267 276 278 279 274
254 257 256 253 252 235 242 229 240 253 262 276 123 150 165 170 169 171 163 148 131 121 110 129 130 126 129 134 147 152 149 145 36 324 248 257 253 233 250 274 267 273 276 279
245 244 248 251 240 240 244 247 226 243 243 246 221 170 178 187 189 178 171 158 153 131 140 136 130 134 119 126 130 298 248 284 265 281 273 266 272 262 261 271 277 280 281 285
248 245 242 250 254 238 237 243 229 237 234 256 251 187 188 193 198 183 180 175 171 149 142 148 146 148 135 131 128 132 114 197 209 226 235 253 252 252 262 266 276 281 288 280
246 249 258 248 250 243 236 238 233 229 225 209 234 203 188 191 195 190 192 169 164 164 152 146 141 117 133 136 131 95 196 194 201 223 266 273 288 285 294 287 276 281 282 284
245 251 249 252 243 225 240 251 242 235 206 190 203 210 203 184 190 181 173 164 162 158 148 153 147 144 131 121 121 96 359 79 170 266 311 320 309 318 301 298 298 271 271 284
231 247 256 266 270 287 212 239 226 221 201 195 188 236 116 156 165 166 160 155 157 148 146 140 137 136 127 117 95 69 36 18 355 329 319 318 317 315 312 298 297 267 270 275
240 241 240 247 313 258 42 58 201 177 193 185 191 159 158 153 160 161 160 158 152 144 141 135 132 128 115 106 92 61 31 17 5 353 335 318 309 309 313 321 287 272 278 280
274 263 277 260 277 57 351 145 157 181 172 185 187 169 171 156 162 162 156 153 149 148 141 136 124 114 103 83 62 36 9 345 332 336 337 330 331 328 323 318 313 327 273 275
345 247 254 274 161 160 251 265 201 204 198 201 198 175 175 160 165 162 159 154 151 152 149 129 102 80 76 74 75 58 36 20 359 327 329 319 326 333 329 317 314 299 300 327
251 275 285 278 237 233 239 254 220 213 193 198 176 173 154 151 162 146 152 155 152 151 151 127 122 100 88 76 72 60 47 22 1 344 330 327 321 328 326 318 307 290 286 288
239 284 248 272 238 236 234 226 223 157 145 147 144 139 142 143 144 134 152 158 153 143 137 139 134 132 102 72 60 57 42 12 359 356 342 330 324 325 316 314 309 298 287 271
244 255 253 280 301 195 193 191 177 153 152 139 142 138 147 145 134 137 172 176 156 149 151 153 147 114 76 60 49 43 36 4 357 350 337 335 334 322 320 323 313 308 296 290
262 291 298 202 254 189 173 183 159 163 153 147 152 149 136 121 127 149 173 172 153 137 131 130 113 77 58 35 31 26 17 348 348 331 326 321 319 318 319 313 321 312 300 291
263 259 272 271 268 232 218 151 178 178 164 163 161 160 174 180 159 172 178 159 123 123 167 179 142 69 42 21 25 16 353 329 329 324 317 314 318 308 311 313 309 313 302 296
270 250 265 251 247 201 194 153 172 177 163 167 168 179 179 181 172 187 184 178 183 183 173 167 158 96 43 19 28 356 343 334 338 328 323 312 310 312 311 313 310 305 308 302
269 252 250 235 217 210 163 157 159 155 154 151 150 153 150 149 163 169 177 178 178 158 167 163 134 77 50 21 26 354 345 334 329 330 320 313 306 307 306 307 305 303 298 293
249 250 244 246 186 185 134 142 155 150 150 149 149 155 158 164 167 170 168 169 164 165 155 137 135 102 43 18 29 12 348 337 331 321 316 305 293 304 304 303 302 299 295 291
252 255 229 216 237 132 134 146 150 147 149 148 150 158 164 165 164 166 163 164 161 152 158 188 107 80 49 27 44 8 354 349 338 328 316 307 312 307 305 302 303 301 297 293
272 209 211 204 155 133 142 154 152 147 142 146 151 152 155 158 164 160 158 152 149 150 146 129 106 83 61 34 44 15 8 2 349 335 327 324 316 306 302 300 299 297 294 288
123 130 117 141 168 153 137 147 147 147 146 150 153 156 159 160 156 155 160 159 148 136 151 121 123 91 57 61 38 22 15 4 350 346 340 338 328 313 304 299 299 298 292 285
140 133 89 104 114 118 135 145 148 143 145 149 152 155 160 165 163 165 160 149 160 145 139 142 141 121 79 65 32 29 16 7 358 0 356 348 346 340 328 318 313 305 299 289
145 140 155 151 144 138 139 141 143 145 151 156 161 164 169 177 170 166 166 159 166 155 159 182 199 54 85 71 25 17 18 16 10 14 7 358 353 355 349 344 339 326 315 291
156 159 162 157 148 135 135 138 139 149 162 171 176 176 178 169 167 172 157 172 170 164 161 177 219 198 136 169 347 12 13 19 17 13 11 5 7 8 14 10 4 352 348 337
146 147 147 147 137 134 143 149 153 165 175 178 180 180 181 171 173 171 158 174 187 175 195 215 214 222 214 217 280 359 352 30 35 27 23 15 10 6 14 15 10 14 32 60
114 134 130 135 138 139 143 169 181 180 182 174 174 180 174 171 167 158 160 169 174 169 179 210 203 222 213 238 262 255 250 331 20 24 34 32 30 18 21 33 25 26 38 70
92 110 113 111 121 148 170 208 180 171 167 176 173 169 163 163 169 170 159 170 175 174 177 178 210 213 222 238 246 226 258 280 298 310 10 24 32 35 25 38 41 32 56 72